SCP
0 0 0 0 0 0 0 0 0 0 0 0 0 0 0 0 0 0 0 0 0 0 0 0 0 0 0 0 0 0 0 0 0 0 0 0 0 0 0 0 0 0 0
0 0 0 0 0 0 0 0 0 0 0 0 0 0 0 0 0 0 0 0 0 0 0 0 0 0 0 0 0 0 0 0 0 0 0 0 0 0 0 0 0 0 0
0 0 0 0 0 0 0 0 0 0 0 0 0 0 0 0 0 0 0 0 0 0 0 0 0 0 0 0 0 0 0 0 0 0 0 0 0 0 0 0 0 0 0
0 0 0 0 0 0 0 0 0 0 0 0 0 0 0 0 0 0 0 0 0 0 0 0 0 0 0 0 0 0 0 0 0 0 0 0 0 0 0 0 0 0 0
0 0 0 0 0 0 0 0 0 0 0 0 0 0 0 0 0 0 0 0 0 0 0 0 0 0 0 0 0 0 0 0 0 0 0 0 0 0 0 0 0 0 0
0 0 0 0 0 0 0 0 0 0 0 0 0 0 0 0 0 0 0 0 0 0 0 0 0 0 0 0 0 0 0 0 0 0 0 0 0 0 0 0 0 0 0
0 0 0 0 0 0 0 0 0 0 0 0 0 0 0 0 0 0 0 0 0 0 0 0 0 0 0 0 0 0 0 0 0 0 0 0 0 0 0 0 0 0 0
0 0 0 0 0 0 0 0 0 0 0 0 0 0 0 0 0 0 0 0 0 0 0 0 0 0 0 0 0 0 0 0 0 0 0 0 0 0 0 0 0 0 0
0 0 0 0 0 0 0 0 0 0 0 0 0 0 0 0 0 0 0 0 0 0 0 0 0 0 0 0 0 0 0 0 0 0 0 0 0 0 0 0 0 0 0
0 0 0 0 0 0 0 0 0 0 0 0 0 0 0 0 0 0 0 0 0 0 0 0 0 0 0 0 0 0 0 0 0 0 0 0 0 0 0 0 0 0 0
0 0 0 0 0 0 0 0 0 0 0 0 0 0 0 0 0 0 0 0 0 0 0 0 0 0 0 0 0 0 0 0 0 0 0 0 0 0 0 0 0 0 0
0 0 0 0 0 0 0 0 0 0 0 0 0 0 0 0 0 0 0 0 0 0 0 0 0 0 0 0 0 0 0 0 0 0 0 0 0 0 0 0 0 0 0
0 0 0 0 0 0 0 0 0 0 0 0 0 0 0 0 0 0 0 0 0 0 0 0 0 0 0 0 0 0 0 0 0 0 0 0 0 0 0 0 0 0 0
0 0 0 0 0 0 0 0 0 0 0 0 0 0 0 0 0 0 0 0 0 0 0 0 0 0 0 0 0 0 0 0 0 0 0 0 0 0 0 0 0 0 0
0 0 0 0 0 0 0 0 0 0 0 0 0 0 0 0 0 0 0 0 0 0 0 0 0 0 0 0 0 0 0 0 0 0 0 0 0 0 0 0 0 0 0
0 0 0 0 0 0 0 0 0 0 0 0 0 0 0 0 0 0 0 0 0 0 0 0 0 0 0 0 0 0 0 0 0 0 0 0 0 0 0 0 0 0 0
0 0 0 0 0 0 0 0 0 0 0 0 0 0 0 0 0 0 0 0 0 0 0 0 0 0 0 0 0 0 0 0 0 0 0 0 0 0 0 0 0 0 0
0 0 0 0 0 0 0 0 0 0 0 0 0 0 0 0 0 0 0 0 0 0 0 0 0 0 0 0 0 0 0 0 0 0 0 0 0 0 0 0 0 0 0
0 0 0 0 0 0 0 0 0 0 0 0 0 0 0 0 0 0 0 0 0 0 0 0 0 0 0 0 0 0 0 0 0 0 0 0 0 0 0 0 0 0 0
0 0 0 0 0 0 0 0 0 0 0 0 0 0 0 0 0 0 0 0 0 0 0 0 0 0 0 0 0 0 0 0 0 0 0 0 0 0 0 0 0 0 0
0 0 0 0 0 0 0 0 0 0 0 0 0 0 0 0 0 0 0 0 0 0 0 0 0 0 0 0 0 0 0 0 0 0 0 0 0 0 0 0 0 0 0
0 0 0 0 0 0 0 0 0 0 0 0 0 0 0 0 0 0 0 0 0 0 0 0 0 0 0 0 0 0 0 0 0 0 0 0 0 0 0 0 0 0 0
0 0 0 0 0 0 0 0 0 0 0 0 0 0 0 0 0 0 0 0 0 0 0 0 0 0 0 0 0 0 0 0 0 0 0 0 0 0 0 0 0 0 0
0 0 0 0 0 0 0 0 0 0 0 0 0 0 0 0 0 0 0 0 0 0 0 0 0 0 0 0 0 0 0 0 0 0 0 0 0 0 0 0 0 0 0
0 0 0 0 0 0 0 0 0 0 0 0 0 0 0 0 0 0 0 0 0 0 0 0 0 0 0 0 0 0 0 0 0 0 0 0 0 0 0 0 0 0 0
0 0 0 0 0 0 0 0 0 0 0 0 0 0 0 0 0 0 0 0 0 0 0 0 0 0 0 0 0 0 0 0 0 0 0 0 0 0 0 0 0 0 0
Wind_Speed
11 10 8 8 8 7 7 6 6 6 5 5 3 3 2 3 2 1 2 4 5 3 2 4 5 6 6 7 9 10 12 13 15 13 11 11 13 14 13 12 12 13 14
11 11 11 10 9 7 6 6 7 6 5 4 4 3 2 2 3 2 2 3 6 6 4 5 5 6 7 8 8 9 9 12 13 11 9 11 12 11 11 12 12 13 14
14 12 11 10 9 8 8 6 7 5 5 4 4 3 3 3 3 4 4 3 5 9 10 7 6 7 8 7 9 8 10 12 11 10 11 12 10 9 8 8 9 11 12
15 13 10 10 9 8 8 7 7 6 5 5 4 3 4 4 5 5 5 4 4 4 7 9 9 9 9 7 6 8 10 10 10 11 11 9 8 8 9 10 10 10 10
17 13 11 10 11 9 8 7 7 6 6 5 4 4 4 4 4 5 6 5 5 4 4 7 10 10 8 6 6 7 8 9 9 9 9 9 10 10 10 10 10 10 11
17 14 11 13 13 10 9 9 9 6 6 6 6 5 4 3 3 4 5 4 4 5 4 3 4 6 8 7 7 8 9 10 11 11 11 11 10 10 10 11 11 11 12
17 15 11 12 12 12 12 13 9 10 6 7 6 5 4 4 5 4 4 4 5 5 4 3 3 3 4 8 9 9 11 12 12 11 11 11 11 11 12 12 12 12 12
17 15 16 13 14 12 14 14 12 8 6 8 5 5 5 5 5 4 4 4 4 4 4 4 4 4 4 4 9 13 14 12 11 11 11 11 12 12 12 12 12 12 13
16 16 17 15 15 14 14 16 15 15 9 9 6 6 6 7 6 6 6 4 4 3 3 4 5 5 5 5 6 10 11 10 11 11 12 12 13 12 12 12 12 12 13
15 15 16 16 16 14 15 15 15 12 12 10 7 5 4 3 6 7 6 6 5 4 5 4 5 5 6 5 7 11 11 11 11 12 12 13 13 12 12 12 13 13 13
14 15 15 15 15 14 15 16 16 15 11 11 9 6 5 3 3 5 6 7 6 5 5 5 5 6 6 5 5 8 10 10 10 10 11 11 11 12 12 12 13 14 14
10 15 15 15 15 14 16 16 16 19 15 14 10 8 7 7 6 5 5 5 6 5 5 5 6 6 5 5 6 7 8 8 8 8 9 9 10 11 11 12 13 14 15
9 14 15 16 15 15 16 15 16 17 17 15 13 10 8 7 5 6 5 5 5 4 5 5 5 6 6 5 4 4 4 6 6 7 7 8 9 9 10 12 13 14 15
9 11 15 16 17 16 15 15 13 14 14 14 15 12 8 7 7 7 7 7 6 5 6 7 6 7 6 5 4 2 1 3 5 6 6 7 8 9 10 12 12 13 13
8 10 13 16 17 17 16 16 13 15 14 15 14 13 10 8 7 6 6 7 8 8 9 9 7 9 7 6 6 4 4 4 7 6 5 6 7 8 10 11 11 12 13
10 10 12 14 16 16 17 17 15 16 16 15 12 14 13 9 8 7 7 6 6 6 7 7 6 8 10 7 7 5 5 7 9 7 7 6 7 8 8 9 11 12 14
10 11 12 13 15 16 17 17 18 17 18 17 15 16 15 13 10 9 8 8 7 6 5 5 5 8 11 9 7 6 6 6 5 8 8 8 8 7 8 10 11 13 14
11 11 12 13 14 15 17 18 19 17 19 20 19 18 18 12 14 12 11 12 10 9 7 7 7 7 8 9 8 7 6 5 6 7 9 9 9 8 9 11 13 14 15
11 11 12 13 14 16 17 19 19 19 20 21 21 22 20 17 17 13 14 13 11 9 7 7 7 6 5 7 8 7 7 7 6 6 8 9 9 9 11 13 14 14 14
12 11 12 14 15 16 17 18 19 19 20 20 20 20 21 22 21 18 15 15 12 12 10 9 7 6 6 7 7 7 7 7 5 5 6 7 8 10 12 14 14 14 15
12 11 12 12 14 14 14 16 17 18 19 21 21 21 21 22 23 20 16 16 16 13 12 11 8 7 8 8 9 8 7 5 5 5 4 4 4 5 7 10 12 13 14
13 12 12 12 14 13 18 24 21 18 19 21 22 21 20 20 23 29 28 26 25 21 18 14 12 12 12 10 10 9 7 5 4 5 3 4 4 6 7 7 10 14 15
13 13 13 13 14 17 24 26 26 19 19 21 22 20 17 17 21 21 26 29 27 27 25 18 17 15 13 13 13 12 9 6 4 4 1 4 5 7 6 7 13 15 16
14 14 14 15 16 17 22 25 24 21 21 22 22 21 20 20 21 23 21 20 20 21 22 15 11 10 9 12 11 10 9 6 3 3 4 4 4 5 6 7 13 15 15
16 15 14 15 16 17 21 23 25 15 17 21 20 20 21 22 27 32 23 21 20 17 21 19 12 11 14 16 13 8 9 7 4 4 7 5 4 4 6 8 9 13 13
18 18 17 16 17 17 20 23 23 14 16 16 16 18 21 25 27 34 25 22 22 19 17 17 15 15 14 16 18 10 8 8 5 4 7 5 4 3 4 5 6 6 9
Wind_Direction
183 182 183 180 177 171 173 172 166 157 150 139 126 120 91 65 69 76 93 7 343 346 105 116 114 109 106 101 88 84 81 80 74 62 53 50 39 32 32 36 39 37 36
185 183 183 182 178 178 177 173 164 161 156 143 129 108 85 87 84 89 99 81 36 18 53 84 100 117 120 108 99 85 91 93 77 65 57 57 42 29 29 32 36 38 33
187 184 183 182 178 173 168 164 161 161 151 142 138 143 139 130 120 118 119 106 77 48 47 53 62 82 84 87 89 83 90 81 73 69 67 59 44 30 29 31 36 38 29
188 184 181 181 173 171 172 169 165 158 159 164 161 155 144 134 117 115 112 105 91 77 64 52 55 65 66 64 77 83 81 79 76 69 61 54 44 37 30 31 31 23 18
189 185 182 175 171 173 177 171 170 164 164 158 143 130 126 131 124 117 109 97 87 85 87 75 62 57 60 60 67 80 84 81 75 68 60 51 42 32 21 15 11 9 9
190 187 182 174 172 172 175 175 168 162 152 140 124 110 109 136 156 133 121 103 94 89 89 98 85 70 61 71 74 79 82 77 66 54 44 37 28 20 12 6 3 2 2
189 189 183 178 179 179 179 176 165 160 152 152 137 129 131 148 165 148 126 108 103 93 92 91 91 99 87 73 71 71 71 61 50 40 33 27 20 13 6 0 356 354 353
193 192 186 183 185 183 181 181 174 168 156 182 169 154 167 177 184 176 152 120 112 113 105 98 102 104 109 89 68 60 49 41 34 30 24 19 15 8 1 355 351 349 348
205 201 193 186 187 187 187 188 185 176 172 185 208 194 180 181 160 174 183 167 147 138 130 125 121 114 115 105 88 64 45 37 28 21 15 11 8 3 357 353 350 349 348
220 214 205 196 191 192 192 190 191 190 181 179 191 230 250 173 165 160 176 187 182 162 149 149 145 134 135 109 82 58 40 32 22 14 10 6 2 358 354 352 350 351 350
222 222 217 208 199 198 195 189 189 193 196 190 182 176 185 192 205 161 162 171 181 175 164 162 157 151 145 127 88 52 37 21 12 6 3 1 356 352 350 349 349 350 351
214 220 220 216 208 204 199 194 193 196 200 201 195 184 174 176 187 177 153 158 170 162 168 168 168 156 151 134 90 63 38 14 0 354 355 354 350 348 347 347 349 350 349
213 215 215 217 214 212 207 200 199 202 203 202 200 199 196 187 170 173 159 142 155 152 174 184 178 165 160 153 121 87 38 359 340 336 339 340 339 339 341 344 347 347 346
229 221 217 222 221 216 211 207 207 207 206 207 207 203 196 185 177 171 162 151 153 162 184 183 178 177 170 165 129 162 282 304 297 307 315 321 322 326 333 339 341 340 340
252 238 224 225 227 219 212 206 209 207 207 209 209 206 203 191 185 178 170 169 165 175 192 187 179 184 178 174 171 206 250 246 269 271 277 294 301 311 326 333 333 334 333
265 249 236 229 229 226 218 211 212 208 208 210 207 206 207 196 185 179 182 182 188 188 182 170 178 175 176 183 185 216 241 252 254 251 258 271 281 302 319 322 324 325 327
278 259 245 233 229 227 224 222 219 208 207 208 207 208 209 198 190 184 184 183 183 181 165 161 163 162 177 188 190 213 232 242 237 240 257 264 272 290 301 305 312 319 324
295 270 255 244 235 231 228 227 226 218 209 207 205 207 210 199 200 191 188 188 183 184 176 167 171 172 189 193 198 213 224 236 246 240 252 258 268 281 295 308 314 319 323
311 287 263 251 242 236 232 230 231 226 220 216 207 205 204 197 203 197 193 189 180 177 184 168 165 169 177 189 200 210 222 232 233 233 241 247 256 272 295 307 308 313 319
324 302 275 259 250 243 238 234 233 232 227 224 219 212 205 200 201 197 197 192 177 177 185 180 170 174 175 172 189 199 203 212 215 213 222 236 253 277 295 300 304 310 314
325 314 292 269 257 250 243 238 235 234 232 228 224 219 214 208 204 198 197 192 181 179 183 188 187 186 188 175 192 186 193 198 216 205 214 226 268 291 297 297 298 300 305
321 317 302 282 267 256 249 242 237 234 233 232 228 222 216 210 208 206 205 198 191 184 183 184 192 199 199 188 172 172 175 188 194 172 207 254 271 273 271 272 279 288 298
313 309 303 292 277 265 258 251 241 235 235 234 231 225 216 210 204 206 209 205 203 203 194 188 191 197 190 183 172 173 178 185 180 142 206 271 239 230 238 252 269 280 286
302 299 295 290 282 272 264 259 251 239 237 236 233 229 221 213 205 202 200 202 203 204 202 199 205 199 184 172 171 166 165 174 217 237 210 257 250 228 232 252 265 266 267
294 288 284 281 277 274 267 262 257 248 241 236 233 230 225 218 209 203 198 199 199 202 202 195 200 186 170 164 161 152 156 162 198 214 196 232 244 248 255 252 249 252 261
286 285 280 275 272 270 265 259 255 250 247 238 227 225 225 220 211 204 201 197 196 192 183 181 186 182 175 172 173 173 173 175 173 202 188 219 239 243 263 224 233 253 265